Find Starlink 32909

NORAD ID: 62894 Int'l Des: 2025-024 Owner: SPXS Country: US Constellation: starlink operational
LEOCIRCULAR

現在のビュー

3D地球を読み込み中...

About Starlink 32909

Starlink 32909 (NORAD 62894) is a starlink constellation satellite (v2 mini) launched Feb 4, 2025 by SPXS of US. It operates in LEO, CIRCULAR orbit with a mass of 730.00 kg.

次回通過

Passes for default location (London). Set your location on the main map for personalized predictions.

高度履歴

Loading altitude history...

軌道要素

1 62894U 25024R 26264.78869037 .00008210 00000-0 30752-3 0 9991
2 62894 43.0023 298.1699 0001676 274.3378 85.7282 15.27583243 92251
Epoch: Sep 21, 2026 • Age: 16 hours

現在のステータス

高度 485.4 km
遠地点 / 近地点 N/A
速度 7.63 km/s
衛星直下点 34.65°N, 101.87°W
打ち上げ日 Feb 4, 2025
運用期間 1.6 years
タイプ internet

技術仕様

分類 Payload
質量 730.00 kg
乾燥質量 700.00 kg
長さ 0.30 m
スパン 29.00 m
形状 ? Box + pan
製造者 SPXS
バスタイプ Starlink V2M
フェーズステータス In Orbit
所有者/国 SPXS/US

Most Searched